"TOA5","AWS1","CR1000","7964","CR1000.Std.14","CPU:AWS1_114.CR1","64363","TBL110"
"TIMESTAMP","RECORD","Wind_spd_WVc(1)","Wind_spd_WVc(2)","Air_Temp_Avg","Humidity_Avg","SW_upper_Wm2_Avg","Rain_Tot","Press_Avg","Issui_Tot","Depth_cm","SR50A_Raw","Quality","Ground_Temp_Avg(1)","Ground_Temp_Avg(2)","SW_lower_Wm2_Avg","Albedo_Avg","SWC_per(1)","SWC_per(2)","Period(1)","Period(2)"
"TS","RN","","","","","","","","","","","","","","","","","","",""
"","","WVc","WVc","Avg","Avg","Avg","Tot","Avg","Tot","Smp","Smp","Smp","Avg","Avg","Avg","Avg","Smp","Smp","Smp","Smp"
"2018-02-03 00:00:00",326077,0,0,-4.207,95.7,0,0,863.5478,0,87.2,2.326,193,1.045,1.7,0.2313199,0,52.27,59.73,33.85,35.62
"2018-02-03 00:10:00",326078,0.003,84.9,-4.099,93.9,0,0,863.5436,0,87.1,2.327,183,1.061,1.71,0.2275278,0,52.32,59.73,33.87,35.62
"2018-02-03 00:20:00",326079,0.013,87.5,-4.057,92.5,0,0,863.5457,0,86.7,2.33,176,1.066,1.712,0.1478931,0,52.27,59.73,33.85,35.62
"2018-02-03 00:30:00",326080,0.032,87.3,-4.276,92.9,0,0,863.6194,0,86.9,2.33,183,1.049,1.707,0,0,52.27,59.73,33.85,35.62
"2018-02-03 00:40:00",326081,0,0,-4.326,93.8,0,0,863.7944,0,86.9,2.33,179,1.039,1.697,0.02275278,0,52.27,59.73,33.85,35.62
"2018-02-03 00:50:00",326082,0,0,-4.445,93.5,0,0,863.7628,0,86.7,2.333,171,1.039,1.699,0.07205047,0,52.27,59.73,33.85,35.62
"2018-02-03 01:00:00",326083,0.027,87.6,-4.662,94.1,0,0,863.7859,0,86.6,2.334,188,1.034,1.68,0.0758426,0,52.27,59.73,33.85,35.62
"2018-02-03 01:10:00",326084,0.004,126.9,-4.809,94.9,0,0,863.8007,0,86.7,2.334,171,1.025,1.659,0.1668537,0,52.27,59.73,33.85,35.62
"2018-02-03 01:20:00",326085,0.018,125.7,-4.811,94.5,0,0,863.9271,0,86.6,2.334,172,1.026,1.65,0.2540727,0,52.27,59.73,33.85,35.62
"2018-02-03 01:30:00",326086,0.146,140.4,-4.906,93.3,0,0,863.9777,0,86.7,2.335,171,1.025,1.644,0.3867973,0,52.27,59.73,33.85,35.62
"2018-02-03 01:40:00",326087,0.601,141.4,-4.868,93,0,0,863.8428,0,86.6,2.334,171,1.025,1.662,0.4323029,0,52.27,59.73,33.85,35.62
"2018-02-03 01:50:00",326088,0.704,139.1,-4.316,80.7,0,0,863.9398,0,86.9,2.329,175,1.028,1.66,0.1971908,0,52.27,59.73,33.85,35.62
"2018-02-03 02:00:00",326089,0.807,136.5,-3.77,77.38,0,0,864.0051,0,86.6,2.33,184,1.028,1.679,0.2161514,0,52.27,59.73,33.85,35.62
"2018-02-03 02:10:00",326090,0.981,133.7,-3.676,79.55,0,0,863.9061,0,86.5,2.33,184,1.034,1.682,0.09480325,0,52.27,59.73,33.85,35.62
"2018-02-03 02:20:00",326091,0.557,143.2,-3.537,80.9,0,0,863.7944,0,86.5,2.33,170,1.029,1.667,0.00379213,0,52.27,59.73,33.85,35.62
"2018-02-03 02:30:00",326092,0.638,143.3,-3.625,82.5,0,0,863.6468,0,86.5,2.33,189,1.029,1.666,0.00379213,0,52.27,59.67,33.85,35.6
"2018-02-03 02:40:00",326093,0.754,128.9,-3.544,82.8,0,0,863.5436,0,86.5,2.33,187,1.026,1.676,0,0,52.27,59.73,33.85,35.62
"2018-02-03 02:50:00",326094,0.645,107,-3.473,83,0,0,863.5056,0,86.5,2.33,179,1.038,1.693,0.00379213,0,52.27,59.73,33.85,35.62
"2018-02-03 03:00:00",326095,0.375,132.2,-3.335,82.7,0,0,863.4909,0,86.4,2.33,189,1.049,1.706,0,0,52.27,59.73,33.85,35.62
"2018-02-03 03:10:00",326096,0.599,110.8,-3.205,82.6,0,0,863.4508,0,86.3,2.331,174,1.042,1.704,0,0,52.27,59.73,33.85,35.62
"2018-02-03 03:20:00",326097,0.506,133.8,-3.073,82.5,0,0,863.3455,0,86.1,2.332,171,1.055,1.707,0,0,52.27,59.67,33.85,35.6
"2018-02-03 03:30:00",326098,0.25,138.5,-3.006,82.8,0,0,863.3011,0,86,2.333,188,1.059,1.714,0,0,52.27,59.73,33.85,35.62
"2018-02-03 03:40:00",326099,0.332,111.9,-3.181,84,0,0,863.1094,0,86.1,2.333,179,1.068,1.713,0,0,52.27,59.73,33.85,35.62
"2018-02-03 03:50:00",326100,0.279,127.2,-3.184,84.2,0,0,863.0334,0,86,2.334,193,1.073,1.711,0,0,52.27,59.67,33.85,35.6
"2018-02-03 04:00:00",326101,0.319,113.4,-3.174,83.8,0,0,862.8943,0,85.9,2.335,179,1.071,1.707,0,0,52.27,59.73,33.85,35.62
"2018-02-03 04:10:00",326102,0.353,132.4,-3.128,83.3,0,0,862.5993,0,85.2,2.342,183,1.091,1.71,0,0,52.27,59.67,33.85,35.6
"2018-02-03 04:20:00",326103,0.465,145.1,-3.149,82.6,0,0,862.5319,0,85.5,2.338,188,1.085,1.711,0,0,52.32,59.73,33.87,35.62
"2018-02-03 04:30:00",326104,0.593,148.9,-3.119,82.5,0,0,862.5255,0,85.4,2.339,193,1.079,1.709,0,0,52.27,59.73,33.85,35.62
"2018-02-03 04:40:00",326105,0.482,152.5,-3.095,82,0,0,862.5087,0,84.8,2.345,185,1.053,1.703,0,0,52.27,59.73,33.85,35.62
"2018-02-03 04:50:00",326106,0.358,134.7,-3.111,81.4,0,0,862.4623,0,84.9,2.345,184,1.063,1.714,0,0,52.27,59.73,33.85,35.62
"2018-02-03 05:00:00",326107,0.353,119.5,-3.384,82.7,0,0,862.3969,0,84.9,2.346,189,1.078,1.714,0,0,52.27,59.67,33.85,35.6
"2018-02-03 05:10:00",326108,0.342,339.8,-3.564,84.7,0,0,862.4518,0,84.3,2.353,188,1.073,1.714,0,0,52.27,59.73,33.85,35.62
"2018-02-03 05:20:00",326109,0.221,117.4,-3.68,85.1,0,0,862.5339,0,84.9,2.348,176,1.072,1.712,0,0,52.27,59.67,33.85,35.6
"2018-02-03 05:30:00",326110,0.266,126.7,-3.979,86,0,0,862.3421,0,84.8,2.349,188,1.051,1.714,0,0,52.27,59.73,33.85,35.62
"2018-02-03 05:40:00",326111,0.034,93.7,-4.096,85.1,0,0,862.2789,0,84.3,2.355,181,1.049,1.706,0,0,52.27,59.73,33.85,35.62
"2018-02-03 05:50:00",326112,0.177,84.6,-4.442,85.4,0,0,862.2789,0,85.5,2.345,207,1.029,1.677,0,0,52.27,59.73,33.85,35.62
"2018-02-03 06:00:00",326113,0.064,48.18,-4.53,85.7,0,0,862.2009,0,85.2,2.347,184,1.026,1.656,0.1668537,0,52.27,59.73,33.85,35.62
"2018-02-03 06:10:00",326114,0.139,107.9,-4.914,85.4,0,0,862.0281,0,85.5,2.347,187,1.025,1.634,0.007584261,0,52.27,59.73,33.85,35.62
"2018-02-03 06:20:00",326115,0.083,215.7,-5.406,87.5,0,0,862.0197,0,85,2.355,186,1.025,1.63,0,0,52.27,59.73,33.85,35.62
"2018-02-03 06:30:00",326116,0.085,210.8,-5.65,89.7,0,0,861.8406,0,85,2.355,214,1.028,1.634,0.04171401,0,52.27,59.73,33.85,35.62
"2018-02-03 06:40:00",326117,0.3,190.1,-6.073,90.2,0,0,861.7709,0,84.8,2.358,187,1.028,1.636,0.2199468,0,52.27,59.67,33.85,35.6
"2018-02-03 06:50:00",326118,0.164,219.5,-5.306,89.9,0,0,861.7709,0,84.8,2.353,195,1.04,1.66,1.990922,0,52.27,59.73,33.85,35.62
"2018-02-03 07:00:00",326119,0.013,132.2,-5.239,84.6,2.190811,0,861.7731,0,85.2,2.355,194,1.049,1.684,3.906123,1.761,52.27,59.73,33.85,35.62
"2018-02-03 07:10:00",326120,0,0,-5.956,89.8,11.60329,0,861.7689,0,84.1,2.363,182,1.051,1.695,10.22828,0.884,52.27,59.73,33.85,35.62
"2018-02-03 07:20:00",326121,0.012,132.8,-6.036,88.1,20.37892,0,861.5855,0,86.3,2.344,257,1.06,1.701,16.00073,0.786,52.27,59.67,33.85,35.6
"2018-02-03 07:30:00",326122,0,0,-5.57,87.9,25.60332,0,861.5582,0,84.9,2.355,217,1.064,1.709,20.71934,0.809,52.27,59.67,33.85,35.6
"2018-02-03 07:40:00",326123,0,0,-5.947,86.6,33.09789,0,861.6593,0,84.9,2.356,204,1.073,1.718,26.14001,0.787,52.27,59.73,33.85,35.62
"2018-02-03 07:50:00",326124,0.057,144.6,-5.808,86.2,55.25412,0,861.589,0,85.2,2.352,201,1.084,1.722,45.57203,0.826,52.27,59.67,33.85,35.6
"2018-02-03 08:00:00",326125,0.007,145.8,-5.319,84.1,62.19387,0,861.7094,0,85.4,2.348,176,1.085,1.701,49.63469,0.797,52.27,59.67,33.85,35.6
"2018-02-03 08:10:00",326126,0,145.8,-4.905,82.3,99.37614,0,861.6578,0,85.7,2.344,192,1.082,1.686,62.9023,0.656,52.27,59.73,33.85,35.62
"2018-02-03 08:20:00",326127,0.079,145.8,-4.903,82.5,60.31354,0,861.5533,0,85,2.352,203,1.082,1.687,42.22707,0.703,52.27,59.67,33.85,35.6
"2018-02-03 08:30:00",326128,0.218,158,-4.701,84.7,59.73866,0,861.7062,0,85.5,2.343,213,1.08,1.687,43.80833,0.733,52.27,59.67,33.85,35.6
"2018-02-03 08:40:00",326129,0.405,136.3,-3.949,82.1,75.153,0,861.6706,0,85,2.346,217,1.073,1.693,52.46606,0.7,52.27,59.67,33.85,35.6
"2018-02-03 08:50:00",326130,0.526,136.3,-3.525,80.2,85.625,0,861.5773,0,85.4,2.34,208,1.071,1.722,68.46905,0.802,52.27,59.67,33.85,35.6
"2018-02-03 09:00:00",326131,0.647,143.2,-3.149,77.96,100.7449,0,861.5245,0,85.3,2.34,201,1.095,1.685,76.80184,0.763,52.27,59.73,33.85,35.62
"2018-02-03 09:10:00",326132,0.768,130.8,-2.97,76.7,96.7282,0,861.5287,0,85.4,2.339,221,1.088,1.668,73.86671,0.764,52.27,59.67,33.85,35.6
"2018-02-03 09:20:00",326133,0.661,127.4,-2.85,73.67,121.2046,0,861.5287,0,85.7,2.335,226,1.07,1.72,89.31394,0.736,52.27,59.67,33.85,35.6
"2018-02-03 09:30:00",326134,0.293,357.1,-2.776,73.78,125.5766,0,861.5836,0,85.2,2.339,196,1.032,1.718,89.26353,0.711,52.27,59.67,33.85,35.6
"2018-02-03 09:40:00",326135,0.557,128.7,-2.472,71.13,165.8065,0,861.5204,0,85.4,2.336,209,1.058,1.717,114.2003,0.689,52.27,59.67,33.85,35.6
"2018-02-03 09:50:00",326136,0.718,138.9,-2.286,68.3,195.512,0,861.5204,0,85.2,2.338,194,1.11,1.717,134.014,0.685,52.27,59.67,33.85,35.6
"2018-02-03 10:00:00",326137,0.781,137.5,-2.309,68.84,185.1014,0,861.5204,0,85.2,2.338,208,1.112,1.717,122.3342,0.662,52.27,59.73,33.85,35.62
"2018-02-03 10:10:00",326138,0.797,135.8,-2.506,72.23,146.692,0,861.5204,0,85.3,2.337,214,1.112,1.717,99.49802,0.678,52.27,59.73,33.85,35.62
"2018-02-03 10:20:00",326139,0.574,133.5,-2.315,73.23,153.4253,0,861.5204,0,85.3,2.336,217,1.112,1.717,113.6085,0.737,52.27,59.67,33.85,35.6
"2018-02-03 10:30:00",326140,0.416,118,-1.944,73.35,185.0464,0,861.5119,0,85.6,2.332,224,1.1,1.736,138.8983,0.748,52.27,59.73,33.85,35.62
"2018-02-03 10:40:00",326141,0.336,18.19,-2.004,73.97,192.7825,0,861.3475,0,86.3,2.326,317,1.042,1.721,134.3781,0.699,52.27,59.67,33.85,35.6
"2018-02-03 10:50:00",326142,0.387,356,-2.08,74.12,174.2818,0,861.3741,0,85,2.338,218,1.027,1.739,129.8958,0.744,52.27,59.67,33.85,35.6
"2018-02-03 11:00:00",326143,0.263,325.4,-1.749,73.43,238.1877,0,861.2409,0,84.8,2.339,208,1.033,1.792,172.42,0.726,52.27,59.73,33.85,35.62
"2018-02-03 11:10:00",326144,0.166,5.49,-1.613,73.21,157.5942,0,861.0632,0,84.3,2.345,203,1.052,1.788,119.1504,0.762,52.27,59.73,33.85,35.62
"2018-02-03 11:20:00",326145,0.463,323.7,-2.174,75.55,131.8144,0,860.9875,0,83.7,2.353,193,1.052,1.759,105.8581,0.802,52.27,59.67,33.85,35.6
"2018-02-03 11:30:00",326146,0.422,278.6,-2.362,76.88,137.3652,0,860.9261,0,83.8,2.351,190,1.035,1.733,108.2096,0.788,52.27,59.73,33.85,35.62
"2018-02-03 11:40:00",326147,0.383,282.1,-2.305,78.38,128.1035,0,860.757,0,83.8,2.353,186,1.023,1.721,103.0944,0.804,52.21,59.73,33.84,35.62
"2018-02-03 11:50:00",326148,0.134,241.7,-2.376,81.3,146.3127,0,860.6679,0,84.3,2.345,185,1.024,1.716,111.9974,0.765,52.21,59.73,33.84,35.62
"2018-02-03 12:00:00",326149,0.477,339.4,-2.155,81.5,217.105,0,860.4612,0,84.4,2.346,193,1.053,1.715,166.0542,0.765,52.27,59.67,33.85,35.6
"2018-02-03 12:10:00",326150,0.493,326,-2.163,82,263.0025,0,860.4085,0,84.2,2.346,193,1.094,1.715,197.1047,0.753,52.27,59.67,33.85,35.6
"2018-02-03 12:20:00",326151,0.475,315.8,-2.363,82.3,137.8469,0,860.1768,0,84.7,2.345,193,1.107,1.714,109.5287,0.799,52.27,59.67,33.85,35.6
"2018-02-03 12:30:00",326152,0.361,9.59,-2.627,86.1,174.3009,0,859.9766,0,84.7,2.345,170,1.105,1.714,136.963,0.79,52.27,59.73,33.85,35.62
"2018-02-03 12:40:00",326153,0.549,350.9,-2.706,87.4,189.1271,0,859.886,0,85,2.341,188,1.108,1.714,140.6667,0.746,52.27,59.73,33.85,35.62
"2018-02-03 12:50:00",326154,0.304,282.8,-2.461,87.8,162.8166,0,859.6838,0,84.6,2.346,192,1.109,1.714,121.0908,0.745,52.27,59.73,33.85,35.62
"2018-02-03 13:00:00",326155,0.469,265.7,-2.63,83.9,194.8044,0,859.6627,0,84.5,2.346,182,1.108,1.714,150.6366,0.776,52.27,59.67,33.85,35.6
"2018-02-03 13:10:00",326156,0.556,287.2,-2.732,84.3,140.3828,0,859.658,0,84.7,2.346,170,1.107,1.714,109.8168,0.784,52.27,59.73,33.85,35.62
"2018-02-03 13:20:00",326157,0.502,277.4,-2.837,83.8,219.4753,0,859.6546,0,84.7,2.345,192,1.108,1.714,167.3162,0.764,52.27,59.73,33.85,35.62
"2018-02-03 13:30:00",326158,0.677,287.8,-2.997,83.6,132.5077,0,859.6437,0,84.9,2.344,175,1.107,1.714,107.2959,0.81,52.27,59.73,33.85,35.62
"2018-02-03 13:40:00",326159,0.746,286.1,-3.017,84.3,162.1325,0,859.6385,0,84.9,2.345,183,1.108,1.714,130.6816,0.805,52.27,59.73,33.85,35.62
"2018-02-03 13:50:00",326160,0.433,273.4,-3.184,85.2,136.168,0,859.6348,0,84.6,2.347,192,1.109,1.714,111.2687,0.82,52.21,59.73,33.84,35.62
"2018-02-03 14:00:00",326161,0.516,295.2,-3.098,83.9,171.7965,0,859.6298,0,84.6,2.347,188,1.109,1.714,134.9349,0.787,52.27,59.67,33.85,35.6
"2018-02-03 14:10:00",326162,0.403,280.9,-2.977,85,174.6272,0,859.7529,0,84.6,2.346,185,1.107,1.714,140.6553,0.807,52.21,59.67,33.84,35.6
"2018-02-03 14:20:00",326163,0.455,265.4,-2.781,85.4,219.2316,0,859.8743,0,84.1,2.35,180,1.099,1.714,172.1154,0.786,52.21,59.73,33.84,35.62
"2018-02-03 14:30:00",326164,0.572,288.9,-2.851,84.5,163.8782,0,859.8068,0,84.6,2.347,182,1.079,1.714,133.6498,0.812,52.27,59.67,33.85,35.6
"2018-02-03 14:40:00",326165,0.478,329.3,-3.193,90.1,37.94022,0,859.7265,0,85.6,2.339,185,1.097,1.714,31.83546,0.849,52.27,59.67,33.85,35.6
"2018-02-03 14:50:00",326166,1.089,18.03,-3.732,92.8,27.23833,0,859.8082,0,86.5,2.333,194,1.106,1.714,27.28267,1.001,52.27,59.73,33.85,35.62
"2018-02-03 15:00:00",326167,0.743,343.7,-4.332,93.5,29.38893,0,859.8513,0.5,87.1,2.328,232,1.038,1.714,34.48146,1.168,52.27,59.73,33.85,35.62
"2018-02-03 15:10:00",326168,0.747,0.166,-4.482,92.1,38.12501,0,859.8796,0,87.2,2.328,196,0.99,1.715,50.20966,1.313,52.21,59.67,33.84,35.6
"2018-02-03 15:20:00",326169,0.966,8.65,-4.649,89.5,46.03545,0.5,859.9097,0,87.2,2.328,190,0.96,1.731,63.07576,1.37,52.21,59.73,33.84,35.62
"2018-02-03 15:30:00",326170,0.796,269.1,-4.646,89.5,42.94519,0,859.9254,0,87.3,2.327,196,0.999,1.767,61.21067,1.424,52.21,59.73,33.84,35.62
"2018-02-03 15:40:00",326171,0.696,250,-4.722,89.3,32.24722,0,860.0899,0,87.5,2.325,198,1.022,1.754,47.32483,1.467,52.27,59.67,33.85,35.6
"2018-02-03 15:50:00",326172,0.922,288.1,-4.911,89,19.67387,0.5,860.1993,0.5,87.7,2.325,196,1.023,1.709,28.15456,1.424,52.21,59.67,33.84,35.6
"2018-02-03 16:00:00",326173,1.024,270.7,-5.043,88.1,17.96361,0,860.2419,0,87.7,2.325,186,1.023,1.688,26.72162,1.482,52.21,59.67,33.84,35.6
"2018-02-03 16:10:00",326174,0.411,257,-4.8,86.4,39.01749,0,860.1282,0,87.5,2.325,195,1.023,1.665,57.87473,1.485,52.27,59.73,33.85,35.62
"2018-02-03 16:20:00",326175,0.69,198,-4.687,84.6,45.66587,0,859.9218,0,87.5,2.325,196,1.023,1.648,67.46935,1.478,52.21,59.67,33.84,35.6
"2018-02-03 16:30:00",326176,0.536,185.4,-4.758,83.3,31.31936,0,859.9133,0,87.6,2.325,194,1.023,1.629,44.09504,1.39,52.21,59.67,33.84,35.6
"2018-02-03 16:40:00",326177,0.772,199,-5.052,83.6,10.93779,0,860.1535,0,87.6,2.326,186,1.023,1.628,14.44689,1.322,52.27,59.67,33.85,35.6
"2018-02-03 16:50:00",326178,1.12,276.5,-5.329,82.8,8.01266,0,860.1873,0,87.6,2.327,171,1.023,1.628,10.95173,1.368,52.27,59.67,33.85,35.6
"2018-02-03 17:00:00",326179,0.789,251.6,-5.495,82,5.866014,0,860.1409,0,87.6,2.328,172,1.024,1.629,8.499093,1.447,52.27,59.67,33.85,35.6
"2018-02-03 17:10:00",326180,0.644,266,-5.601,82.6,3.133648,0,860.2441,0,87.5,2.329,171,1.041,1.641,4.689481,1.509,52.27,59.67,33.85,35.6
"2018-02-03 17:20:00",326181,0.428,223,-5.677,82.7,1.089194,0,860.2093,0,87.5,2.33,171,1.08,1.671,1.952521,1.857,52.27,59.73,33.85,35.62
"2018-02-03 17:30:00",326182,0.63,236.8,-5.814,82.1,0.1140399,0,860.1451,0,87.6,2.33,180,1.083,1.708,0.4019136,0.964,52.27,59.73,33.85,35.62
"2018-02-03 17:40:00",326183,0.564,267.2,-5.994,81,0,0,860.0215,0,87.6,2.33,192,1.098,1.739,0,0,52.21,59.73,33.84,35.62
"2018-02-03 17:50:00",326184,0.395,227.4,-6.289,82.5,0,0,860.0109,0,87.5,2.333,188,1.11,1.764,0,0,52.21,59.67,33.84,35.6
"2018-02-03 18:00:00",326185,0.228,241.3,-6.54,84.6,0,0,860.0096,0,87.4,2.334,192,1.091,1.722,0,0,52.27,59.67,33.85,35.6
"2018-02-03 18:10:00",326186,0.273,289,-6.637,85.9,0,0,860.0214,0,87.3,2.336,187,1.056,1.716,0.0265449,0,52.21,59.67,33.84,35.6
"2018-02-03 18:20:00",326187,0.39,233,-6.908,86.4,0,0,860.1945,0,87.5,2.335,192,1.032,1.684,0,0,52.27,59.67,33.85,35.6
"2018-02-03 18:30:00",326188,0.441,191.3,-6.993,87.1,0,0,860.2303,0,87.2,2.338,187,1.025,1.642,0,0,52.27,59.67,33.85,35.6
"2018-02-03 18:40:00",326189,0.473,181.4,-7.14,87,0,0,860.0659,0,87.3,2.339,191,1.025,1.632,0,0,52.27,59.73,33.85,35.62
"2018-02-03 18:50:00",326190,0.457,182.2,-7.449,87.5,0,0,860.0174,0,87.4,2.339,191,1.033,1.657,0,0,52.21,59.73,33.84,35.62
"2018-02-03 19:00:00",326191,0.648,171.8,-7.645,88.4,0,0,859.95,0,87.2,2.341,191,1.03,1.672,0.04171343,0,52.27,59.67,33.85,35.6
"2018-02-03 19:10:00",326192,0.573,210.5,-7.511,88.5,0,0,859.8867,0,87.2,2.34,190,1.032,1.682,0,0,52.21,59.67,33.84,35.6
"2018-02-03 19:20:00",326193,0.329,191.1,-7.816,88.1,0,0,859.912,0.5,87,2.345,190,1.067,1.704,0,0,52.21,59.67,33.84,35.6
"2018-02-03 19:30:00",326194,0.565,189.3,-8.14,89,0,0,859.7624,0,87.2,2.343,191,1.093,1.715,0,0,52.21,59.67,33.84,35.6
"2018-02-03 19:40:00",326195,0.726,181.9,-8,86.6,0,0,859.7498,0,87.2,2.343,191,1.071,1.709,0.0530913,0,52.27,59.73,33.85,35.62
"2018-02-03 19:50:00",326196,0.241,180.1,-8.16,84.2,0,0,859.7498,0,87.1,2.345,192,1.055,1.697,0,0,52.27,59.67,33.85,35.6
"2018-02-03 20:00:00",326197,0.176,5.323,-8.29,83.9,0,0,859.7455,0,87.2,2.346,190,1.061,1.684,0.03034111,0,52.21,59.67,33.84,35.6
"2018-02-03 20:10:00",326198,0.267,127.4,-8.62,85.6,0,0,859.6999,0,86.8,2.35,191,1.067,1.672,0.03413552,0,52.27,59.67,33.85,35.6
"2018-02-03 20:20:00",326199,0.249,175.2,-9.05,86.6,0,0,859.6479,0,87.1,2.348,192,1.083,1.691,0.01137942,0,52.27,59.73,33.85,35.62
"2018-02-03 20:30:00",326200,0.326,178.4,-8.76,86.2,0,0,859.6133,0,87.3,2.344,189,1.101,1.705,0.1441422,0,52.27,59.73,33.85,35.62
"2018-02-03 20:40:00",326201,0.214,178.9,-8.61,83.4,0,0,859.5792,0,87,2.349,190,1.112,1.716,0.2958785,0,52.27,59.67,33.85,35.6
"2018-02-03 20:50:00",326202,0.232,159.4,-9.2,85.9,0,0,859.5844,0,87.4,2.346,191,1.118,1.738,0,0,52.21,59.67,33.84,35.6
"2018-02-03 21:00:00",326203,0.306,171,-8.38,86.5,0,0,859.5793,0,86.9,2.346,191,1.093,1.752,0.8345522,0,52.21,59.67,33.84,35.6
"2018-02-03 21:10:00",326204,0.458,188.6,-8.01,84.3,0,0,859.5059,0,87,2.344,190,1.078,1.757,0.6372954,0,52.27,59.67,33.85,35.6
"2018-02-03 21:20:00",326205,0.634,220.1,-7.67,79.51,0,0,859.5038,0,86.9,2.343,182,1.081,1.756,0.3489953,0,52.27,59.73,33.85,35.62
"2018-02-03 21:30:00",326206,0.518,211.8,-7.724,78.57,0,0,859.5502,0,86.2,2.353,189,1.081,1.759,0.1517371,0,52.27,59.67,33.85,35.6
"2018-02-03 21:40:00",326207,0.255,161.5,-8.77,82.7,0,0,859.5248,0,87.3,2.347,192,1.07,1.759,0,0,52.21,59.67,33.84,35.6
"2018-02-03 21:50:00",326208,0.577,153.7,-9.45,86.2,0,0,859.47,0,86.7,2.356,190,1.072,1.756,0,0,52.27,59.73,33.85,35.62
"2018-02-03 22:00:00",326209,0.594,193.5,-9.28,87,0,0,859.3372,0,86.5,2.354,186,1.082,1.74,0.0834554,0,52.21,59.67,33.84,35.6
"2018-02-03 22:10:00",326210,0.477,166.3,-9.08,83.7,0,0,859.333,0,86.6,2.354,186,1.088,1.711,0.01896713,0,52.21,59.67,33.84,35.6
"2018-02-03 22:20:00",326211,0.956,175.4,-8.92,80.4,0,0,859.2698,0,86.6,2.352,190,1.073,1.709,0.1403568,0,52.21,59.67,33.84,35.6
"2018-02-03 22:30:00",326212,0.431,181.5,-8.98,78.47,0,0,859.0864,0,86.6,2.354,190,1.06,1.711,0.007586854,0,52.27,59.73,33.85,35.62
"2018-02-03 22:40:00",326213,0.21,133.4,-9.35,80.1,0,0,859.0801,0,86.6,2.355,190,1.044,1.714,0,0,52.21,59.73,33.84,35.62
"2018-02-03 22:50:00",326214,0.517,181.6,-9.69,81,0,0,858.91,0,87,2.354,190,1.045,1.71,0,0,52.21,59.73,33.84,35.62
"2018-02-03 23:00:00",326215,0.395,162.2,-9.54,80.9,0,0,858.798,0,86.5,2.357,186,1.062,1.705,0.07587809,0,52.27,59.73,33.85,35.62
"2018-02-03 23:10:00",326216,0.431,165.3,-9.37,79.35,0,0,858.5853,0,86.5,2.355,183,1.073,1.699,0.1479698,0,52.21,59.73,33.84,35.62
"2018-02-03 23:20:00",326217,0.568,177.2,-9.51,79.22,0,0,858.4804,0,87,2.349,190,1.094,1.725,0.07588997,0,52.27,59.67,33.85,35.6
"2018-02-03 23:30:00",326218,0.596,175.4,-8.29,72.51,0,0,858.3867,0,86.7,2.348,186,1.107,1.747,0.6906147,0,52.27,59.67,33.85,35.6
"2018-02-03 23:40:00",326219,0.687,178.1,-7.853,68.84,0,0,858.4097,0,86.1,2.352,190,1.112,1.748,0.3453154,0,52.27,59.67,33.85,35.6
"2018-02-03 23:50:00",326220,0.364,180.3,-7.475,66.04,0,0,858.4777,0,86.5,2.346,191,1.116,1.732,0.132815,0,52.27,59.73,33.85,35.62
